Location: ??????
(55.6500°N, 37.8000°E)
Time: 13:43:13
(UTC+00:00)

NOSS 3-1 (A) - Pass Details

Date: 14 April 2024
Orbit: 660 x 1550 km, 63.4° (Epoch: 15 May)

Event Time Altitude Azimuth Distance (km) Brightness Sun altitude
Rises 01:26:32 0° 307° (NW) 3,655 6.3 -8.4°
Reaches altitude 10° 01:28:53 10° 308° (NW) 2,820 5.7 -8.2°
Maximum altitude 01:35:42 88° 36° (NE) 1,206 4.0 -7.3°
Drops below altitude 10° 01:44:11 10° 130° (SE) 3,464 6.7 -6.3°
Sets 01:47:20 0° 131° (SE) 4,534 7.3 -5.9°
